Regional Weather Roundup
Issued by NWS Portland, ME

Home | Current Version | Previous Version | Text Only | Print | Product List | Glossary On
Versions: 1 2 3 4 5 6 7 8 9 10 11 12 13 14 15 16 17 18 19 20 21 22 23 24 25 26 27 28 29 30 31 32 33 34 35 36 37 38 39 40 41 42 43 44 45 46 47 48 49 50
000
ASUS41 KGYX 160110
RWRGYX
WEATHER ROUNDUP FOR MAINE AND NEW HAMPSHIRE
NATIONAL WEATHER SERVICE GRAY ME
900 PM EDT MON SEP 15 2014

MEZ002-005-006-010-012-015-018-020-021-024-026-027-029-160200-
MAINE

CITY           SKY/WX    TMP DP  RH WIND       PRES   REMARKS
PORTLAND       PTCLDY    54  48  80 CALM      30.13S
SANFORD        PTCLDY    48  43  81 CALM      30.13S
BAR HARBOR     CLEAR     52  48  87 SW3       30.11S
WISCASSET      CLEAR     49  46  90 CALM      30.13F
ROCKLAND       CLEAR     48  46  93 W5        30.11F
FRYEBURG       MOCLDY    47  45  93 CALM      30.11F
LEWISTONAUBURN CLEAR     52  46  82 S5        30.11F
AUGUSTA        CLEAR     51  47  86 SW6       30.11F
WATERVILLE     CLEAR     50  43  76 SW3       30.06S
BANGOR         PTCLDY    50  44  80 CALM      30.10S
GREENVILLE       N/A     46  41  82 CALM      30.07F
MILLINOCKET    CLEAR     47  43  86 CALM      30.09F
HOULTON        CLEAR     41  39  93 S3        30.06S
PRESQUE ISLE   CLEAR     45  39  81 CALM      30.05S
FRENCHVILLE    CLEAR     47  39  74 W9        30.03S
CARIBOU        CLEAR     47  41  80 S3        30.04S
$$

NHZ002-005-008-009-011-012-014-160200-
NEW HAMPSHIRE

CITY           SKY/WX    TMP DP  RH WIND       PRES   REMARKS
PORTSMOUTH     MOCLDY    55  49  81 S8        30.12S
ROCHESTER      PTCLDY    54  47  77 CALM      30.12S
NASHUA         PTCLDY    53  49  86 CALM      30.13S
MANCHESTER     CLOUDY    57  44  62 S3        30.11S
CONCORD        PTCLDY    52  47  83 CALM      30.11F
LACONIA        MOCLDY    52  45  76 CALM      30.10F
PLYMOUTH       FAIR      48  48 100 CALM      30.11F
BERLIN         MOCLDY    44  42  93 CALM      30.11S
WHITEFIELD     MOCLDY    46  43  89 CALM      30.11F
JAFFREY        CLOUDY    50  47  89 CALM      30.13F
LEBANON        MOCLDY    50  45  83 CALM      30.11S
MT WASHINGTON  MOCLDY    32  30  93 W17         N/A
$$

VTZ005-007-008-160200-
VERMONT

CITY           SKY/WX    TMP DP  RH WIND       PRES   REMARKS
ST JOHNSBURY     N/A     49  46  90 MISG      30.09S
MONTPELIER     MOCLDY    49  46  90 CALM      30.14S
BURLINGTON     CLOUDY    58  43  57 S8        30.09R
$$

MAZ007-012-024-CTZ003-RIZ002-NYZ038-NYZ072-160200-
SOUTHERN NEW ENGLAND AND NY

CITY           SKY/WX    TMP DP  RH WIND       PRES   REMARKS
BOSTON         PTCLDY    57  47  69 S7        30.15R
WORCESTER      PTCLDY    52  43  71 CALM      30.13F
NANTUCKET      CLOUDY    59  50  72 E6        30.14R
PROVIDENCE     PTCLDY    58  49  72 W5        30.14R
HARTFORD       MOCLDY    59  44  57 CALM      30.11F
ALBANY         CLOUDY    57  45  64 CALM      30.11F
NEW YORK CITY  MOCLDY    65  49  56 S12       30.10F
$$

ANZ081-ANZ082-ANZ150-NHZ014-MEZ023>029-160200-
COASTAL MARINE OBSERVATIONS

STATION/POSITION TIME  TEMP    WIND        PRES    WAVE
                       AIR SEA DIR/SP/G            HT/PER
                 (UTC) (F)     (DEG/KT/KT) (MB)    (FT/S)
MATINICUS ROCK   0100          240/  6/  7 1019.5F
PORTLAND WX BUOY 0050   59 59  200/  8/ 10 1020.0R   1/ 9
WELLS            0000   56 60  240/  3/  4 1019.1R
ISLE OF SHOALS   0100   59     210/ 13/ 13 1019.8F
JEFFREYS LEDGE   0021      62                N/A     2/ 8
CASHES LEDGE BUO 0050   58 63              1020.3R   1/ 8
$$

.............KEY..............
   WCI - WIND CHILL
   TC  - TEMPERATURE IN CELSIUS
   VSB - VISIBILITY IN MILES
   HX  - HEAT INDEX
   FAIR- INDICATES FEW OR NO CLOUDS BELOW 12,000 FT, WITH NO
         SIGNIFICANT WEATHER AND/OR OBSTRUCTIONS TO VISIBILITY.





USA.gov is the U.S. government's official web portal to all federal, state and local government web resources and services.